Regional Weather Roundup
Issued by NWS

Home | Current Version | Previous Version | Text Only | Print | Product List | Glossary Off
Versions: 1 2 3 4 5 6 7 8 9 10 11 12 13 14 15 16 17 18 19 20 21 22 23 24 25 26 27 28 29 30 31 32 33 34 35 36 37 38 39 40 41 42 43 44 45 46 47 48 49 50

000
ASUS43 KLOT 161358
RWRIL

ILLINOIS REGIONAL WEATHER ROUNDUP
NATIONAL WEATHER SERVICE CHICAGO/ROMEOVILLE IL
900 AM CDT TUE SEP 16 2014

NOTE: "FAIR" INDICATES FEW OR NO CLOUDS BELOW 12,000 FEET WITH NO
SIGNIFICANT WEATHER AND/OR OBSTRUCTIONS TO VISIBILITY.

* THESE STATIONS ARE NOT UNDER NWS QUALITY CONTROL. THEY ALSO MAY NOT
  REPORT WEATHER SUCH AS PRECIPITATION OR FOG.

ILZ001-002-007-009-015-016-024-161500-
NORTHWEST ILLINOIS

CITY           SKY/WX    TMP DP  RH WIND       PRES   REMARKS
MOLINE         SUNNY     52  47  83 CALM      30.25S
$$

ILZ003-004-008-010-011-017-018-161500-
NORTH CENTRAL ILLINOIS

CITY           SKY/WX    TMP DP  RH WIND       PRES   REMARKS
ROCKFORD       NOT AVBL
$$

ILZ005-006-012>014-019>023-161500-
NORTHEAST ILLINOIS

CITY           SKY/WX    TMP DP  RH WIND       PRES   REMARKS
CHICAGO-OHARE  MOSUNNY   53  45  74 N5        30.21S
CHICAGO-MIDWAY MOSUNNY   56  48  74 NW5       30.21S
AURORA         SUNNY     51  45  79 CALM      30.23S
WAUKEGAN       SUNNY     54  44  69 VRB3      30.21R
DUPAGE AIRPORT SUNNY     53  46  77 N5        30.22R
WHEELING       SUNNY     55  45  68 CALM      30.23R
NORTHERLY ISL    N/A     56  47  71 W3          N/A
$$

LMZ740>746-161500-
SOUTHERN LAKE MICHIGAN

STATION/POSITION SKY/WX   TEMP    WIND        PRES    VSBY  WAVE
                          AIR SEA DIR/SP/G                  HT/PER
                          (F)     (DEG/KT/KT) (MB)    (MI)  (FT/S)
SOUTHERN BUOY              58 64  350/ 12/ 14 1022.3R         2/ 4
WAUKEGAN HARBOR            53     330/  8/ 10   N/A
HARRISON CRIB              52     300/  7/  8   N/A
BURNHAM HARBOR             55     270/  4/  4   N/A
CALUMET HARBOR             53     240/  1/  3   N/A
MICHIGAN CITY              54     140/  3/  5   N/A
MICHIGAN CITY 6N           57 64  190/  6/  8   N/A           2/ 4
ST. JOSEPH                 57 66  120/  6/  8   N/A           1/ 4
$$

ILZ025>027-034>036-040-047-049-050-058-095>099-161500-
WEST-CENTRAL ILLINOIS

CITY           SKY/WX    TMP DP  RH WIND       PRES   REMARKS
QUINCY         PTSUNNY   52  50  93 NE5       30.25R FOG
$$

ILZ028>032-037-038-041>044-048-051>054-059>061-161500-
CENTRAL ILLINOIS

CITY           SKY/WX    TMP DP  RH WIND       PRES   REMARKS
PEORIA         NOT AVBL
SPRINGFIELD    PTSUNNY   54  50  86 NE5       30.25R FOG
TAYLORVILLE    NOT AVBL
$$

ILZ033-039-045-046-055>057-062-063-161500-
EAST-CENTRAL ILLINOIS

CITY           SKY/WX    TMP DP  RH WIND       PRES   REMARKS
$$

ILZ079-100>102-161500-
SOUTHWEST ILLINOIS

CITY           SKY/WX    TMP DP  RH WIND       PRES   REMARKS
ALTON          CLOUDY    57  54  88 NE9       30.23S
CAHOKIA*       MOSUNNY   60  53  77 E5        30.23S
$$

ILZ064>066-069>071-074>076-080>082-084>086-088>090-092>094-161500-
SOUTH-CENTRAL ILLINOIS

CITY           SKY/WX    TMP DP  RH WIND       PRES   REMARKS
CARBONDALE     CLOUDY    58  52  80 N7        30.22R
MARION         CLOUDY    59  54  82 N8        30.22R
$$

ILZ067-068-072-073-078-083-087-091-161500-
SOUTHEAST ILLINOIS

CITY           SKY/WX    TMP DP  RH WIND       PRES   REMARKS
$$

ABBREVIATIONS USED IN REMARKS
   TC - TEMPERATURE IN CELSIUS
  WCI - WIND CHILL INDEX
   HX - HEAT INDEX
  VSB - VISIBILITY
$$




USA.gov is the U.S. government's official web portal to all federal, state and local government web resources and services.